Miami Beach, Florida, United States (33109)
Lat: 25.79N, Lon: 80.13W
Wx Zone: FLZ173
Local Info
Past Weather Observations for Sunday, July 26, 2015

NOTE: This archive is for the closest National Weather Service station to Miami Beach. Information may differ from the station used for current weather conditions.

Click here for Long-term Archive

Time Weather Temperature Dewpoint Humidity Pressure Winds Precip Visibility
23:53
Partly Cloudy
79°F / 26°C 73°F / 23°C 84% 30.01 in
(1016 mb)
S 4.6 mph
(S 7 kph)
- 10SM
22:53
Partly Cloudy
79°F / 26°C 73°F / 23°C 84% 30.01 in
(1016 mb)
S 4.6 mph
(S 7 kph)
- 10SM
21:53
Mostly Cloudy
79°F / 26°C 73°F / 23°C 84% 30.01 in
(1016 mb)
SSE 4.6 mph
(SSE 7 kph)
- 10SM
20:53
Mostly Cloudy
79°F / 26°C 72°F / 22°C 79% 29.98 in
(1015 mb)
S 5.8 mph
(S 9 kph)
- 10SM
19:53
Mostly Cloudy
79°F / 26°C 72°F / 22°C 79% 29.98 in
(1015 mb)
S 5.8 mph
(S 9 kph)
- 10SM
18:53
Mostly Cloudy
81°F / 27°C 70°F / 21°C 70% 29.95 in
(1014 mb)
S 5.8 mph
(S 9 kph)
- 10SM
17:53
Mostly Cloudy
81°F / 27°C 70°F / 21°C 70% 29.95 in
(1014 mb)
SW 5.8 mph
(SW 9 kph)
- 10SM
16:53
Mostly Cloudy
81°F / 27°C 72°F / 22°C 74% 29.95 in
(1014 mb)
SW 5.8 mph
(SW 9 kph)
- 10SM
15:53
Mostly Cloudy
79°F / 26°C 73°F / 23°C 84% 29.98 in
(1015 mb)
SSW 6.9 mph
(SSW 11 kph)
0.00 in
(0.00 mm)
10SM
14:53
Overcast
Light Rain
77°F / 25°C 73°F / 23°C 89% 29.98 in
(1015 mb)
SSW 5.8 mph
(SSW 9 kph)
0.08 in
(2.03 mm)
7SM
13:53
Overcast
Light Rain
77°F / 25°C 73°F / 23°C 89% 30.01 in
(1016 mb)
S 9.2 mph
(S 15 kph)
0.03 in
(0.76 mm)
7SM
12:53
Mostly Cloudy
84°F / 29°C 68°F / 20°C 58% 29.98 in
(1015 mb)
SW 17.3 mph
(SW 28 kph)
- 10SM
12:22
Mostly Cloudy
81°F / 27°C 70°F / 21°C 70% 29.98 in
(1015 mb)
SW 9.2 mph
(SW 15 kph)
- 10SM
11:53
Mostly Cloudy
82°F / 28°C 73°F / 23°C 74% 29.98 in
(1015 mb)
S 8.1 mph
(S 13 kph)
0.08 in
(2.03 mm)
10SM
10:53
Mostly Cloudy
Partly Cloudy
84°F / 29°C 72°F / 22°C 66% 29.98 in
(1015 mb)
SSE 8.1 mph
(SSE 13 kph)
- 10SM
09:53
Mostly Cloudy
Partly Cloudy
84°F / 29°C 72°F / 22°C 66% 29.98 in
(1015 mb)
SSW 9.2 mph
(SSW 15 kph)
- 10SM
08:53
Mostly Cloudy
82°F / 28°C 72°F / 22°C 70% 29.95 in
(1014 mb)
SSW 5.8 mph
(SSW 9 kph)
- 10SM
07:53
Mostly Cloudy
81°F / 27°C 70°F / 21°C 70% 29.95 in
(1014 mb)
SSW 10.4 mph
(SSW 17 kph)
- 10SM
06:53
Mostly Cloudy
81°F / 27°C 73°F / 23°C 79% 29.95 in
(1014 mb)
SW 10.4 mph
(SW 17 kph)
- 10SM
05:53
Mostly Cloudy
79°F / 26°C 73°F / 23°C 84% 29.92 in
(1013 mb)
Calm - 10SM
04:53
Overcast
79°F / 26°C 73°F / 23°C 84% 29.92 in
(1013 mb)
S 4.6 mph
(S 7 kph)
- 10SM
03:53
Mostly Cloudy
79°F / 26°C 73°F / 23°C 84% 29.89 in
(1012 mb)
S 4.6 mph
(S 7 kph)
- 10SM
02:53
Overcast
79°F / 26°C 73°F / 23°C 84% 29.89 in
(1012 mb)
SW 5.8 mph
(SW 9 kph)
0.00 in
(0.00 mm)
10SM
01:53
Mostly Cloudy
Partly Cloudy
79°F / 26°C 73°F / 23°C 84% 29.92 in
(1013 mb)
Calm - 10SM
00:53
Mostly Cloudy
79°F / 26°C 73°F / 23°C 84% 29.92 in
(1013 mb)
S 3.5 mph
(S 6 kph)
- 10SM
Time Weather Temperature Dewpoint Humidity Pressure Winds Precip Visibility


Weather for websites

WeatherForYou.com, LLC is not responsible for any damages or problems caused by this service. Current weather conditions are obtained from the closest station including government and personal stations which may have varying degrees of accuracy. Weather forecasts are derived from the NOAA NDFD. Like all things, this site belongs to Jesus Christ... He just trusts us to maintain it. If you have any questions or comments email webmaster@weatherforyou.com

Copyright © 2015, WeatherForYou.com LLC. All rights reserved.